TimeEST,TemperatureF,Dew PointF,Humidity,Sea Level PressureIn,VisibilityMPH,Wind Direction,Wind SpeedMPH,Gust SpeedMPH,PrecipitationIn,Events,Conditions,WindDirDegrees,DateUTC
12:15 AM,27.1,24.4,90,30.32,10.0,Calm,Calm,-,N/A,,Clear,0,2013-12-19 05:15:00
12:35 AM,26.4,23.9,90,30.32,10.0,Calm,Calm,-,N/A,,Clear,0,2013-12-19 05:35:00
12:55 AM,27.5,24.6,89,30.32,10.0,Calm,Calm,-,N/A,,Clear,0,2013-12-19 05:55:00
1:15 AM,27.0,24.4,90,30.32,10.0,Calm,Calm,-,N/A,,Clear,0,2013-12-19 06:15:00
1:35 AM,27.3,23.9,87,30.32,10.0,Calm,Calm,-,N/A,,Clear,0,2013-12-19 06:35:00
1:55 AM,27.3,24.6,90,30.32,10.0,Calm,Calm,-,N/A,,Clear,0,2013-12-19 06:55:00
2:15 AM,26.6,23.5,88,30.32,10.0,Calm,Calm,-,N/A,,Clear,0,2013-12-19 07:15:00
2:35 AM,27.0,22.8,84,30.32,10.0,Calm,Calm,-,N/A,,Clear,0,2013-12-19 07:35:00
2:55 AM,26.2,23.9,91,30.33,10.0,Calm,Calm,-,N/A,,Clear,0,2013-12-19 07:55:00
3:15 AM,26.1,24.3,93,30.33,10.0,Calm,Calm,-,N/A,,Clear,0,2013-12-19 08:15:00
3:35 AM,25.7,23.7,92,30.33,10.0,Calm,Calm,-,N/A,,Clear,0,2013-12-19 08:35:00
3:55 AM,26.2,24.6,94,30.33,10.0,Calm,Calm,-,N/A,,Clear,0,2013-12-19 08:55:00
4:15 AM,26.2,23.9,91,30.33,10.0,Calm,Calm,-,N/A,,Clear,0,2013-12-19 09:15:00
4:35 AM,26.1,23.9,92,30.32,10.0,Calm,Calm,-,N/A,,Clear,0,2013-12-19 09:35:00
4:55 AM,25.5,24.3,95,30.32,10.0,Calm,Calm,-,N/A,,Clear,0,2013-12-19 09:55:00
5:15 AM,25.5,23.5,92,30.33,10.0,Calm,Calm,-,N/A,,Clear,0,2013-12-19 10:15:00
5:35 AM,25.0,23.7,95,30.33,10.0,Calm,Calm,-,N/A,,Clear,0,2013-12-19 10:35:00
5:55 AM,25.3,23.9,94,30.34,10.0,Calm,Calm,-,N/A,,Clear,0,2013-12-19 10:55:00
6:15 AM,25.0,23.5,94,30.34,10.0,Calm,Calm,-,N/A,,Clear,0,2013-12-19 11:15:00
6:35 AM,24.6,22.5,91,30.35,10.0,Calm,Calm,-,N/A,,Clear,0,2013-12-19 11:35:00
6:55 AM,24.3,22.8,94,30.35,10.0,Calm,Calm,-,N/A,,Clear,0,2013-12-19 11:55:00
7:15 AM,24.8,23.2,94,30.35,10.0,Calm,Calm,-,N/A,,Clear,0,2013-12-19 12:15:00
7:35 AM,25.7,23.4,91,30.36,10.0,Calm,Calm,-,N/A,,Clear,0,2013-12-19 12:35:00
7:55 AM,23.7,22.6,96,30.36,10.0,Calm,Calm,-,N/A,,Clear,0,2013-12-19 12:55:00
8:15 AM,26.6,25.3,95,30.36,10.0,Calm,Calm,-,N/A,,Clear,0,2013-12-19 13:15:00
8:35 AM,34.3,29.3,82,30.37,10.0,SW,5.8,-,N/A,,Clear,230,2013-12-19 13:35:00
8:55 AM,37.4,28.8,71,30.36,10.0,SW,5.8,-,N/A,,Clear,220,2013-12-19 13:55:00
9:15 AM,39.7,28.4,64,30.37,10.0,SW,5.8,-,N/A,,Clear,230,2013-12-19 14:15:00
9:35 AM,42.3,28.9,59,30.37,10.0,SW,9.2,-,N/A,,Clear,220,2013-12-19 14:35:00
9:55 AM,45.0,27.7,51,30.37,10.0,SW,8.1,-,N/A,,Clear,230,2013-12-19 14:55:00
10:15 AM,46.6,27.3,47,30.37,10.0,SSW,11.5,-,N/A,,Clear,210,2013-12-19 15:15:00
10:35 AM,48.9,27.5,43,30.37,10.0,SW,9.2,-,N/A,,Clear,230,2013-12-19 15:35:00
10:55 AM,51.1,27.5,40,30.37,10.0,SW,6.9,-,N/A,,Clear,220,2013-12-19 15:55:00
11:15 AM,52.9,27.7,38,30.36,10.0,SW,10.4,-,N/A,,Clear,220,2013-12-19 16:15:00
11:35 AM,54.3,27.3,35,30.35,10.0,SSW,10.4,-,N/A,,Clear,210,2013-12-19 16:35:00
11:55 AM,55.0,27.5,35,30.34,10.0,SSW,10.4,-,N/A,,Clear,210,2013-12-19 16:55:00
12:15 PM,57.4,27.0,31,30.33,10.0,SSW,11.5,-,N/A,,Clear,200,2013-12-19 17:15:00
12:35 PM,58.8,24.8,27,30.32,10.0,South,11.5,-,N/A,,Clear,190,2013-12-19 17:35:00
12:55 PM,60.6,21.7,22,30.30,10.0,SSW,10.4,18.4,N/A,,Clear,210,2013-12-19 17:55:00
1:15 PM,61.0,19.9,21,30.30,10.0,SSW,11.5,21.9,N/A,,Clear,200,2013-12-19 18:15:00
1:35 PM,61.5,21.6,22,30.29,10.0,SW,12.7,-,N/A,,Clear,230,2013-12-19 18:35:00
1:55 PM,61.9,23.0,23,30.28,10.0,SSW,10.4,-,N/A,,Clear,210,2013-12-19 18:55:00
2:15 PM,62.6,22.8,22,30.28,10.0,SSW,13.8,17.3,N/A,,Clear,210,2013-12-19 19:15:00
2:35 PM,62.6,22.5,22,30.27,10.0,SSW,15.0,-,N/A,,Clear,200,2013-12-19 19:35:00
2:55 PM,61.9,22.8,22,30.27,10.0,SSW,11.5,-,N/A,,Clear,200,2013-12-19 19:55:00
3:15 PM,60.8,21.9,22,30.27,10.0,SSW,11.5,-,N/A,,Clear,200,2013-12-19 20:15:00
3:35 PM,61.9,22.1,22,30.26,10.0,South,10.4,-,N/A,,Clear,190,2013-12-19 20:35:00
3:55 PM,61.5,22.6,23,30.27,10.0,SSW,10.4,-,N/A,,Clear,200,2013-12-19 20:55:00
4:15 PM,59.7,23.0,24,30.27,10.0,SSW,11.5,-,N/A,,Clear,200,2013-12-19 21:15:00
4:35 PM,58.3,23.2,26,30.27,10.0,SSW,8.1,-,N/A,,Clear,200,2013-12-19 21:35:00
4:55 PM,57.4,23.4,27,30.27,10.0,SSW,6.9,-,N/A,,Clear,200,2013-12-19 21:55:00
5:15 PM,54.1,24.1,31,30.28,10.0,South,5.8,-,N/A,,Clear,190,2013-12-19 22:15:00
5:35 PM,54.1,23.7,31,30.28,10.0,SSW,4.6,-,N/A,,Clear,200,2013-12-19 22:35:00
5:55 PM,53.1,24.1,32,30.29,10.0,SSW,4.6,-,N/A,,Clear,200,2013-12-19 22:55:00
6:15 PM,51.1,25.2,36,30.29,10.0,SSW,4.6,-,N/A,,Clear,200,2013-12-19 23:15:00
6:35 PM,51.4,25.0,36,30.29,10.0,SW,3.5,-,N/A,,Clear,220,2013-12-19 23:35:00
6:55 PM,47.8,26.4,43,30.29,10.0,SSW,5.8,-,N/A,,Clear,200,2013-12-19 23:55:00
7:15 PM,50.5,25.5,38,30.30,10.0,SSW,4.6,-,N/A,,Clear,210,2013-12-20 00:15:00
7:35 PM,50.4,25.7,38,30.30,10.0,SW,4.6,-,N/A,,Clear,220,2013-12-20 00:35:00
7:55 PM,48.4,26.4,42,30.29,10.0,SW,5.8,-,N/A,,Clear,220,2013-12-20 00:55:00
8:15 PM,48.4,26.6,43,30.29,10.0,SW,3.5,-,N/A,,Clear,220,2013-12-20 01:15:00
8:35 PM,44.2,27.1,51,30.29,10.0,Calm,Calm,-,N/A,,Clear,0,2013-12-20 01:35:00
8:55 PM,40.1,30.6,69,30.29,10.0,Calm,Calm,-,N/A,,Clear,0,2013-12-20 01:55:00
9:15 PM,38.1,31.1,76,30.29,10.0,WSW,3.5,-,N/A,,Clear,240,2013-12-20 02:15:00
9:35 PM,36.9,30.9,79,30.29,10.0,Calm,Calm,-,N/A,,Clear,0,2013-12-20 02:35:00
9:55 PM,36.7,30.6,78,30.29,10.0,SSW,4.6,-,N/A,,Clear,210,2013-12-20 02:55:00
10:15 PM,37.4,30.9,77,30.29,10.0,SSW,3.5,-,N/A,,Clear,210,2013-12-20 03:15:00
10:35 PM,44.8,29.8,56,30.28,10.0,SSW,6.9,-,N/A,,Clear,210,2013-12-20 03:35:00
10:55 PM,44.8,29.7,55,30.28,10.0,SSW,6.9,-,N/A,,Clear,210,2013-12-20 03:55:00
11:15 PM,43.0,29.8,60,30.29,10.0,SW,6.9,-,N/A,,Clear,220,2013-12-20 04:15:00
11:35 PM,44.8,29.3,55,30.28,10.0,SW,5.8,-,N/A,,Clear,230,2013-12-20 04:35:00
11:55 PM,44.4,29.8,57,30.28,10.0,WSW,5.8,-,N/A,,Clear,240,2013-12-20 04:55:00